Flag for Switzerland Weather past 2 weeks in Sarnen, Obwalden, Switzerland

Now
39 °F

Chilly.


Feels Like: 39 °F
Forecast: 40 / 47 °F
Wind: 1 mph from Northwest

Location: Giswil

Current Time: Mar 1, 2015 at 10:57:01 PM

Latest Report: Mar 1, 2015 at 9:00 PM


Visibility: N/A

Pressure: 29.93 "Hg

Humidity: 98%

Dew point: 39 °F

Location of SarnenLocation

Historic Weather in Sarnen — Graph

°F

Sarnen temperature yesterday

Maximum temperature yesterday: 40 °F (at 5:00 PM)
Minimum temperature yesterday: 27 °F (at 10:00 PM)
Average temperature yesterday: 35 °F

Past Weeks' High & Low Weather Summary

 TemperatureHumidityPressure
High49 °F (Feb 20, 4:00 PM)100% (Feb 14, 9:00 PM)30.72 "Hg (Feb 14, 9:00 PM)
Low20 °F (Feb 20, 6:00 AM)31% (Feb 26, 4:00 PM)29.59 "Hg (Feb 21, 3:00 PM)
Average33 °F92%30.10 "Hg
* Reported Feb 14 9:00 PM — Mar 1 9:00 PM, Sarnen, Weather by CustomWeather, © 2015

Note: Actual official high and low records may vary slightly from our data, if they occured in-between our weather recording intervals... More about our weather records

Advertising

Sarnen weather history for previous 24 hours

 ConditionsComfort  
Time TempWeatherWind HumidityBarometerVisibility
9:00 PM
Sun, Mar 1
39 °FChilly.1 mph98%29.93 "HgN/A
8:00 PM39 °FChilly.2 mph98%29.94 "HgN/A
7:00 PM39 °FChilly.1 mph97%29.95 "HgN/A
6:00 PM42 °FQuite cool.1 mph91%29.94 "HgN/A
5:00 PM43 °FQuite cool.1 mph84%29.92 "HgN/A
4:00 PM42 °FQuite cool.3 mph85%29.92 "HgN/A
3:00 PM42 °FQuite cool.6 mph87%29.91 "HgN/A
2:00 PM40 °FChilly.1 mph88%29.95 "HgN/A
1:00 PM39 °FChilly.1 mph88%29.99 "HgN/A
12:00 PM38 °FChilly.2 mph89%29.99 "HgN/A
11:00 AM37 °FChilly.2 mph91%30.01 "HgN/A
10:00 AM36 °FChilly.6 mph91%30.01 "HgN/A
9:00 AM35 °FChilly.3 mph94%30.02 "HgN/A
8:00 AM33 °FChilly.1 mph96%30.02 "HgN/A
7:00 AM32 °FChilly.1 mph93%30.04 "HgN/A
6:00 AM32 °FChilly.2 mph94%30.03 "HgN/A
5:00 AM31 °FChilly.2 mph95%30.05 "HgN/A
3:00 AM28 °FChilly.1 mph96%30.07 "HgN/A
2:00 AM28 °FChilly.2 mph96%30.09 "HgN/A
1:00 AM27 °FChilly.2 mph96%30.11 "HgN/A
12:00 AM28 °FChilly.1 mph94%30.12 "HgN/A
11:00 PM
Sat, Feb 28
28 °FChilly.1 mph95%30.14 "HgN/A
10:00 PM27 °FChilly.2 mph94%30.18 "HgN/A
Weather by CustomWeather, © 2015

See weather overviewHow to use our weather pages